[[{"header":{"parameterUnit":"m.s-1","parameterCategory":1,"la1":30.2991,"la2":30.254,"lo1":-89.0895,"lo2":-89.0444,"dy":0.0017,"dx":0.0017,"nx":28,"ny":28,"refTime":"2023-09-24T21:00:00:Z","depth":0,"parameterNumber":2,"parameterNumberName":"U-component_of_WINDS"},"data":[0,0,0,0,0,0,0,0,0,0,0,0,0,0,0,0,0,0,0,0,0,0,0,0,0,0,0,0,0,0,0,0,0,0,0,0,0,0,0,0,0,0,0,0,0,0,0,0,0,0,0,0,0,0,0,0,0,0,-0.4549,-0.4549,0,-0.4572,-0.4573,-0.4573,-0.4574,-0.4574,-0.4574,-0.4573,-0.4598,-0.4599,-0.46,0,0,0,0,0,0,0,0,0,0,0,0,0,-0.4506,-0.4506,-0.4549,-0.4549,-0.4549,-0.4572,-0.4573,-0.4573,-0.4574,-0.4574,-0.4574,-0.4573,-0.4597,-0.4599,-0.46,0,0,0,0,0,0,0,0,0,0,0,0,0,-0.4526,-0.4507,-0.4548,-0.4553,-0.4553,-0.4572,-0.4573,-0.4573,-0.4574,-0.4574,-0.4574,-0.4573,-0.4597,-0.4598,-0.46,-0.4617,0,0,-0.4604,-0.4604,0,0,0,0,0,0,0,0,-0.4525,-0.4528,-0.4552,-0.4552,-0.4553,-0.457,-0.4567,-0.4588,-0.4574,-0.4566,-0.4573,-0.4573,-0.4589,-0.4591,-0.4596,-0.4618,-0.4619,-0.4604,-0.4605,-0.4605,-0.4606,0,0,0,0,0,0,0,-0.4524,-0.4527,-0.4558,-0.4552,-0.4553,-0.4554,-0.4556,-0.4571,-0.458,-0.4567,-0.4567,-0.457,-0.4589,-0.4595,-0.4597,-0.4619,-0.4604,-0.4605,-0.4606,-0.4607,-0.4658,-0.4659,0,0,0,0,0,0,-0.4521,-0.4526,-0.4557,-0.4559,-0.4538,-0.4555,-0.4558,-0.4565,-0.4579,-0.4581,-0.457,-0.457,-0.4593,-0.4595,-0.4598,-0.462,-0.4605,-0.4607,-0.4607,-0.4658,-0.4658,-0.4659,0,0,0,0,0,0,-0.452,-0.4524,-0.4556,-0.4542,-0.4546,-0.4556,-0.4564,-0.4566,-0.4571,-0.4582,-0.4584,-0.4574,-0.4593,-0.4596,-0.4612,-0.4621,-0.4607,-0.4609,-0.4657,-0.4658,-0.4659,-0.4664,0,0,0,0,0,0,-0.4519,-0.4524,-0.453,-0.4542,-0.4547,-0.457,-0.4565,-0.4566,-0.4574,-0.4574,-0.4586,-0.4588,-0.4592,-0.461,-0.4614,-0.4622,-0.461,-0.4656,-0.4657,-0.4658,-0.4663,-0.4665,-0.4666,0,0,0,0,0,-0.4518,-0.453,-0.453,-0.4534,-0.4555,-0.4571,-0.4573,-0.4578,-0.4574,-0.4581,-0.4588,-0.4588,-0.4619,-0.4612,-0.4616,-0.4625,-0.4656,-0.4657,-0.4658,-0.4662,-0.4664,-0.4666,0,0,0,0,0,0,-0.4517,-0.4531,-0.4532,-0.4548,-0.4558,-0.4571,-0.4579,-0.458,-0.4591,-0.4591,-0.4596,-0.4599,-0.4616,-0.4622,-0.4614,-0.4643,-0.4637,-0.4639,-0.4639,-0.4641,-0.4643,-0.4641,-0.4611,0,0,0,0,0,-0.4519,-0.453,-0.4542,-0.4556,-0.4561,-0.4569,-0.4576,-0.4579,-0.459,-0.4594,-0.4602,-0.4613,-0.4625,-0.4633,-0.4645,-0.4664,-0.4668,-0.4672,-0.4674,-0.4675,-0.4677,-0.469,-0.4692,-0.4663,-0.4663,-0.4663,0,0,-0.4523,-0.4532,-0.4539,-0.4556,-0.4564,-0.4577,-0.4573,-0.4585,-0.4595,-0.4596,-0.4613,-0.4619,-0.4632,-0.465,-0.4658,-0.4655,-0.4686,-0.4677,-0.4678,-0.4679,-0.4691,-0.4694,-0.4696,-0.4664,-0.4664,-0.4664,0,0,-0.4536,-0.4544,-0.4557,-0.4565,-0.4578,-0.4584,-0.4587,-0.46,-0.4605,-0.4622,-0.4624,-0.4635,-0.4656,-0.4666,-0.4673,-0.4693,-0.4693,-0.4696,-0.4705,-0.4717,-0.472,-0.4722,-0.4731,-0.4733,-0.4698,-0.4698,-0.4698,0,-0.4539,-0.4558,-0.4563,-0.4577,-0.4585,-0.4587,-0.4601,-0.4609,-0.4625,-0.4631,-0.4628,-0.4656,-0.4664,-0.4686,-0.4691,-0.4696,-0.4701,-0.4695,-0.4719,-0.4721,-0.4723,-0.4732,-0.4735,-0.4699,-0.4699,-0.4699,-0.4698,0,-0.4562,-0.4575,-0.4584,-0.46,-0.461,-0.4623,-0.4631,-0.464,-0.4643,-0.465,-0.4668,-0.4679,-0.4694,-0.4699,-0.4701,-0.4722,-0.472,-0.4718,-0.4712,-0.4726,-0.4734,-0.4737,-0.4699,-0.4699,-0.4699,-0.4699,0,0,-0.4574,-0.4595,-0.4598,-0.4607,-0.4622,-0.4633,-0.4647,-0.4663,-0.4671,-0.4682,-0.4696,-0.4715,-0.4714,-0.4722,-0.4726,-0.4736,-0.4754,-0.4733,-0.4734,-0.4738,-0.4779,-0.4782,-0.4785,-0.4754,-0.4755,-0.4755,-0.4779,0,-0.459,-0.4616,-0.4623,-0.4645,-0.4658,-0.4662,-0.4675,-0.4686,-0.4693,-0.4706,-0.4714,-0.4728,-0.4724,-0.473,-0.4741,-0.4749,-0.4762,-0.4748,-0.4768,-0.4768,-0.4766,-0.4789,-0.4791,-0.4812,-0.4782,-0.4782,-0.4783,0,-0.4612,-0.4625,-0.4649,-0.4665,-0.4671,-0.4683,-0.4699,-0.471,-0.4724,-0.4729,-0.474,-0.4743,-0.476,-0.4753,-0.4777,-0.4767,-0.4775,-0.4781,-0.4782,-0.4785,-0.4777,-0.4793,-0.4819,-0.4823,-0.4787,-0.4787,-0.4787,0,-0.4621,-0.4644,-0.4663,-0.4669,-0.4688,-0.4696,-0.4705,-0.4718,-0.4728,-0.4742,-0.4748,-0.4764,-0.4773,-0.4785,-0.4793,-0.4787,-0.4817,-0.481,-0.4823,-0.4823,-0.4829,-0.4829,-0.4858,-0.4833,-0.4833,-0.4833,-0.4833,0,-0.4639,-0.4653,-0.4667,-0.4678,-0.4696,-0.4703,-0.4721,-0.4729,-0.4742,-0.4755,-0.4759,-0.4772,-0.4781,-0.4796,-0.4802,-0.4822,-0.4826,-0.4831,-0.4833,-0.4831,-0.4831,-0.4837,-0.4837,-0.4834,-0.4833,-0.4833,-0.4833,0,-0.4651,-0.466,-0.468,-0.4697,-0.4702,-0.4714,-0.4729,-0.4741,-0.4749,-0.4766,-0.4771,-0.4783,-0.4801,-0.481,-0.4832,-0.4836,-0.4859,-0.4859,-0.4855,-0.4856,-0.4868,-0.4867,-0.4903,-0.4909,-0.4879,-0.488,-0.488,0,-0.4662,-0.4674,-0.4692,-0.4702,-0.4711,-0.4726,-0.4736,-0.4745,-0.4756,-0.4774,-0.4784,-0.4802,-0.4817,-0.4845,-0.4857,-0.4874,-0.4875,-0.4887,-0.4878,-0.4877,-0.4877,-0.4877,-0.4879,-0.4888,-0.4889,-0.4889,-0.4889,0,-0.4681,-0.4685,-0.47,-0.4718,-0.473,-0.4744,-0.4758,-0.4765,-0.4777,-0.4789,-0.4808,-0.4819,-0.4843,-0.4861,-0.488,-0.4889,-0.4892,-0.4892,-0.4896,-0.4895,-0.4893,-0.4896,-0.486,-0.4891,-0.4891,-0.4891,-0.4891,-0.4891,-0.4693,-0.4705,-0.4721,-0.4738,-0.4749,-0.4763,-0.4775,-0.4786,-0.4801,-0.4821,-0.4826,-0.4846,-0.4862,-0.4887,-0.4898,-0.4914,-0.4912,-0.4917,-0.4919,-0.492,-0.4922,-0.4889,-0.4917,-0.4917,-0.4917,-0.4917,-0.4917,0,-0.4714,-0.4725,-0.474,-0.476,-0.4774,-0.4776,-0.4792,-0.4804,-0.4822,-0.4836,-0.4852,-0.4874,-0.4893,-0.4907,-0.4926,-0.4937,-0.4939,-0.4942,-0.4941,-0.4944,-0.4922,-0.4917,-0.494,-0.494,-0.494,-0.494,-0.494,-0.494,-0.4726,-0.4747,-0.4754,-0.4781,-0.4792,-0.4812,-0.4821,-0.4834,-0.4846,-0.4871,-0.4887,-0.4896,-0.4912,-0.4932,-0.495,-0.4954,-0.4962,-0.4965,-0.4969,-0.4948,-0.4945,-0.4943,-0.4939,-0.4966,-0.4966,-0.499,-0.499,-0.499]},{"header":{"parameterUnit":"m.s-1","parameterCategory":1,"la1":30.2991,"la2":30.254,"lo1":-89.0895,"lo2":-89.0444,"dy":0.0017,"dx":0.0017,"nx":28,"ny":28,"refTime":"2023-09-24T21:00:00:Z","depth":0,"parameterNumber":3,"parameterNumberName":"V-component_of_WINDS"},"data":[0,0,0,0,0,0,0,0,0,0,0,0,0,0,0,0,0,0,0,0,0,0,0,0,0,0,0,0,0,0,0,0,0,0,0,0,0,0,0,0,0,0,0,0,0,0,0,0,0,0,0,0,0,0,0,0,0,0,3.0843,3.0843,0,3.0843,3.0843,3.0843,3.0783,3.0781,3.0779,3.0778,3.0778,3.0779,3.078,0,0,0,0,0,0,0,0,0,0,0,0,0,3.079,3.0791,3.0843,3.0843,3.0843,3.0843,3.0843,3.0843,3.0783,3.0781,3.0779,3.0777,3.0777,3.0779,3.0781,0,0,0,0,0,0,0,0,0,0,0,0,0,3.0804,3.0792,3.0843,3.0813,3.081,3.0843,3.0843,3.0843,3.0783,3.0781,3.0778,3.0776,3.0777,3.0779,3.0781,3.0842,0,0,3.0788,3.0788,0,0,0,0,0,0,0,0,3.0803,3.0806,3.0817,3.0815,3.0812,3.081,3.0824,3.0842,3.0784,3.0794,3.0778,3.0775,3.079,3.0791,3.0796,3.0842,3.0842,3.0788,3.0789,3.079,3.0791,0,0,0,0,0,0,0,3.0802,3.0805,3.0843,3.0818,3.0814,3.0799,3.0798,3.0827,3.0805,3.0792,3.0788,3.0789,3.0788,3.0794,3.0796,3.0842,3.0788,3.079,3.0791,3.0792,3.0935,3.0937,0,0,0,0,0,0,3.0805,3.0805,3.0843,3.0843,3.0802,3.0802,3.0801,3.0813,3.0805,3.0801,3.0791,3.0786,3.0792,3.0793,3.0796,3.0865,3.079,3.0792,3.0793,3.0932,3.0935,3.0938,0,0,0,0,0,0,3.0804,3.0809,3.0843,3.0823,3.0826,3.0805,3.0819,3.0815,3.082,3.0804,3.0799,3.0801,3.079,3.0793,3.083,3.0864,3.0793,3.0795,3.0929,3.0933,3.0937,3.1004,0,0,0,0,0,0,3.0803,3.0809,3.0833,3.0824,3.0827,3.0878,3.0822,3.0816,3.0824,3.0818,3.0812,3.0809,3.0788,3.0827,3.0833,3.0866,3.0797,3.0926,3.0931,3.0936,3.0999,3.101,3.1019,0,0,0,0,0,3.0801,3.0852,3.0834,3.0839,3.0856,3.088,3.0882,3.0858,3.0827,3.085,3.0839,3.0809,3.086,3.0832,3.0837,3.0871,3.0924,3.093,3.0935,3.0994,3.1008,3.1019,0,0,0,0,0,0,3.0866,3.0851,3.083,3.088,3.0882,3.087,3.0898,3.0873,3.0883,3.0877,3.0846,3.0845,3.0887,3.0883,3.0852,3.0929,3.0886,3.0893,3.093,3.0942,3.0952,3.0951,3.0799,0,0,0,0,0,3.0886,3.0907,3.0893,3.0938,3.0939,3.0919,3.0928,3.0909,3.091,3.091,3.0902,3.0904,3.092,3.0931,3.0945,3.0999,3.0995,3.1025,3.1035,3.1043,3.1049,3.1075,3.1087,3.0956,3.0956,3.0956,0,0,3.0928,3.0922,3.0937,3.095,3.0949,3.0971,3.092,3.0946,3.0961,3.0914,3.0948,3.0943,3.0943,3.0988,3.1007,3.0986,3.1085,3.105,3.1057,3.1058,3.1082,3.1094,3.1105,3.096,3.0959,3.0959,0,0,3.1014,3.1013,3.1049,3.1049,3.1048,3.1033,3.1042,3.1034,3.1028,3.1062,3.1027,3.1045,3.1074,3.1074,3.1079,3.1164,3.1136,3.1169,3.1222,3.1247,3.1258,3.1267,3.1295,3.1306,3.1176,3.1176,3.1176,0,3.1066,3.1097,3.1071,3.1098,3.1104,3.1062,3.1098,3.1099,3.1103,3.1108,3.1084,3.1118,3.1115,3.1159,3.118,3.1185,3.1193,3.1169,3.1258,3.1267,3.1275,3.1302,3.1313,3.118,3.1179,3.1179,3.1179,0,3.1159,3.1182,3.1211,3.1215,3.1224,3.1256,3.1233,3.1246,3.1226,3.1215,3.1249,3.1244,3.1255,3.1265,3.1246,3.1305,3.1292,3.1264,3.122,3.1292,3.1316,3.1327,3.1185,3.1184,3.1183,3.1182,0,0,3.1286,3.1274,3.1285,3.1285,3.1281,3.1297,3.1327,3.1337,3.1348,3.1352,3.1375,3.14,3.1373,3.1378,3.1359,3.1382,3.1447,3.135,3.135,3.1367,3.151,3.153,3.1542,3.1429,3.1431,3.1433,3.1509,0,3.1368,3.1416,3.1393,3.1444,3.1463,3.1424,3.1449,3.1448,3.1438,3.1452,3.1441,3.1458,3.1423,3.1425,3.1446,3.1435,3.1475,3.1429,3.1449,3.145,3.1448,3.1555,3.1577,3.165,3.1519,3.1521,3.1522,0,3.147,3.1477,3.153,3.152,3.1527,3.155,3.1557,3.1572,3.157,3.1561,3.1566,3.1541,3.1568,3.1526,3.1562,3.1532,3.1538,3.1534,3.1536,3.1535,3.1489,3.1556,3.1672,3.1683,3.1537,3.1536,3.1535,0,3.1554,3.1577,3.1611,3.1613,3.1603,3.162,3.1616,3.1612,3.162,3.1626,3.163,3.164,3.1645,3.1653,3.1631,3.1603,3.167,3.1627,3.1662,3.1662,3.1676,3.1675,3.1794,3.1684,3.1684,3.1684,3.1683,0,3.1646,3.168,3.1648,3.1669,3.1705,3.1677,3.1713,3.1706,3.1703,3.1721,3.1688,3.1706,3.1677,3.1691,3.1675,3.1706,3.1709,3.1702,3.1697,3.1704,3.1704,3.1706,3.17,3.1687,3.1686,3.1685,3.1685,0,3.1746,3.1727,3.176,3.1748,3.1745,3.1772,3.1761,3.1779,3.1767,3.179,3.1794,3.1774,3.1789,3.1769,3.1783,3.1771,3.1814,3.1802,3.1814,3.181,3.1845,3.1841,3.1967,3.1982,3.1865,3.1866,3.1867,0,3.1805,3.183,3.1819,3.1829,3.1827,3.1843,3.185,3.1824,3.1832,3.1832,3.185,3.1863,3.1871,3.1898,3.1884,3.1894,3.1881,3.1925,3.1882,3.1888,3.1879,3.1877,3.1879,3.1933,3.1934,3.1935,3.1936,0,3.1912,3.1901,3.1912,3.192,3.1929,3.1933,3.1936,3.1946,3.1918,3.1929,3.1944,3.1951,3.1964,3.1977,3.1983,3.1979,3.1953,3.195,3.1958,3.1965,3.197,3.1965,3.1835,3.1947,3.1946,3.1945,3.1944,3.1944,3.1992,3.2011,3.2006,3.2019,3.2018,3.2021,3.2036,3.2025,3.2037,3.2045,3.203,3.2048,3.2045,3.205,3.205,3.2064,3.2045,3.2057,3.206,3.2063,3.2068,3.1969,3.2065,3.2065,3.2064,3.2064,3.2064,0,3.2095,3.209,3.2102,3.2106,3.2116,3.209,3.2091,3.2101,3.2118,3.2117,3.2125,3.2142,3.2154,3.2141,3.215,3.2164,3.2152,3.2167,3.2165,3.2164,3.2085,3.2076,3.2176,3.2176,3.2176,3.2176,3.2176,3.2176,3.215,3.218,3.2168,3.2197,3.2191,3.2209,3.2211,3.2213,3.2212,3.2232,3.2241,3.2232,3.2226,3.2235,3.2244,3.224,3.2244,3.2263,3.2255,3.2181,3.217,3.2159,3.215,3.2265,3.2265,3.2332,3.2333,3.2333]}]]